Torna al catalogo

COSMOS 2251 DEB

AttivoLEO
NORAD 34964·DEBRIS·🇷🇺 Russia

Lanciato Jun 16, 1993 da Plesetsk Cosmodrome

Loading…

Prossimi Passaggi (prossime 24 ore)

TLE

ObsoletoSource: Space-Track

Epoca: Aug 22, 2026, 20:07 UTC

1 34964U 93036AET 26234.83841504  .00001486  00000-0  82373-3 0  9992
2 34964  73.9683 266.9057 0207762  70.1551 292.1845 14.01696344880232

Traccia COSMOS 2251 DEB in tempo reale con AllMySat

Download on the App Store